Year,Month,Day,Hour,Minute,Value (Times are PST for temperature in C)
2009,07,25,00,00,18.50
2009,07,25,00,01,18.50
2009,07,25,00,02,18.40
2009,07,25,00,03,18.40
2009,07,25,00,04,18.40
2009,07,25,00,05,18.40
2009,07,25,00,06,18.40
2009,07,25,00,07,18.40
2009,07,25,00,08,18.50
2009,07,25,00,09,18.50
2009,07,25,00,10,18.50
2009,07,25,00,11,18.50
2009,07,25,00,12,18.50
2009,07,25,00,13,18.60
2009,07,25,00,14,18.60
2009,07,25,00,15,18.60
2009,07,25,00,16,18.60
2009,07,25,00,17,18.60
2009,07,25,00,18,18.60
2009,07,25,00,19,18.70
2009,07,25,00,20,18.70
2009,07,25,00,21,18.70
2009,07,25,00,22,18.80
2009,07,25,00,23,18.80
2009,07,25,00,24,18.90
2009,07,25,00,25,19.00
2009,07,25,00,26,19.10
2009,07,25,00,27,19.20
2009,07,25,00,28,19.30
2009,07,25,00,29,19.40
2009,07,25,00,30,19.40
2009,07,25,00,31,19.50
2009,07,25,00,32,19.50
2009,07,25,00,33,19.60
2009,07,25,00,34,19.60
2009,07,25,00,35,19.60
2009,07,25,00,36,19.60
2009,07,25,00,37,19.60
2009,07,25,00,38,19.60
2009,07,25,00,39,19.60
2009,07,25,00,40,19.60
2009,07,25,00,41,19.60
2009,07,25,00,42,19.60
2009,07,25,00,43,19.60
2009,07,25,00,44,19.60
2009,07,25,00,45,19.60
2009,07,25,00,46,19.60
2009,07,25,00,47,19.60
2009,07,25,00,48,19.60
2009,07,25,00,49,19.70
2009,07,25,00,50,19.70
2009,07,25,00,51,19.70
2009,07,25,00,52,19.70
2009,07,25,00,53,19.70
2009,07,25,00,54,19.70
2009,07,25,00,55,19.70
2009,07,25,00,56,19.70
2009,07,25,00,57,19.70
2009,07,25,00,58,19.70
2009,07,25,00,59,19.70
2009,07,25,01,00,19.70
2009,07,25,01,01,19.70
2009,07,25,01,02,19.70
2009,07,25,01,03,19.70
2009,07,25,01,04,19.70
2009,07,25,01,05,19.70
2009,07,25,01,06,19.60
2009,07,25,01,07,19.60
2009,07,25,01,08,19.60
2009,07,25,01,09,19.60
2009,07,25,01,10,19.60
2009,07,25,01,11,19.60
2009,07,25,01,12,19.50
2009,07,25,01,13,19.50
2009,07,25,01,14,19.50
2009,07,25,01,15,19.50
2009,07,25,01,16,19.50
2009,07,25,01,17,19.50
2009,07,25,01,18,19.50
2009,07,25,01,19,19.50
2009,07,25,01,20,19.50
2009,07,25,01,21,19.50
2009,07,25,01,22,19.50
2009,07,25,01,23,19.50
2009,07,25,01,24,19.40
2009,07,25,01,25,19.40
2009,07,25,01,26,19.40
2009,07,25,01,27,19.40
2009,07,25,01,28,19.40
2009,07,25,01,29,19.40
2009,07,25,01,30,19.40
2009,07,25,01,31,19.40
2009,07,25,01,32,19.40
2009,07,25,01,33,19.50
2009,07,25,01,34,19.40
2009,07,25,01,35,19.40
2009,07,25,01,36,19.40
2009,07,25,01,37,19.40
2009,07,25,01,38,19.50
2009,07,25,01,39,19.50
2009,07,25,01,40,19.50
2009,07,25,01,41,19.40
2009,07,25,01,42,19.40
2009,07,25,01,43,19.40
2009,07,25,01,44,19.40
2009,07,25,01,45,19.40
2009,07,25,01,46,19.40
2009,07,25,01,47,19.40
2009,07,25,01,48,19.50
2009,07,25,01,49,19.50
2009,07,25,01,50,19.50
2009,07,25,01,51,19.50
2009,07,25,01,52,19.50
2009,07,25,01,53,19.50
2009,07,25,01,54,19.60
2009,07,25,01,55,19.60
2009,07,25,01,56,19.60
2009,07,25,01,57,19.50
2009,07,25,01,58,19.50
2009,07,25,01,59,19.50
2009,07,25,02,00,19.50
2009,07,25,02,01,19.50
2009,07,25,02,02,19.50
2009,07,25,02,03,19.50
2009,07,25,02,04,19.50
2009,07,25,02,05,19.50
2009,07,25,02,06,19.50
2009,07,25,02,07,19.50
2009,07,25,02,08,19.50
2009,07,25,02,09,19.50
2009,07,25,02,10,19.50
2009,07,25,02,11,19.40
2009,07,25,02,12,19.40
2009,07,25,02,13,19.40
2009,07,25,02,14,19.40
2009,07,25,02,15,19.40
2009,07,25,02,16,19.30
2009,07,25,02,17,19.30
2009,07,25,02,18,19.30
2009,07,25,02,19,19.30
2009,07,25,02,20,19.30
2009,07,25,02,21,19.30
2009,07,25,02,22,19.30
2009,07,25,02,23,19.30
2009,07,25,02,24,19.30
2009,07,25,02,25,19.30
2009,07,25,02,26,19.20
2009,07,25,02,27,19.20
2009,07,25,02,28,19.20
2009,07,25,02,29,19.20
2009,07,25,02,30,19.20
2009,07,25,02,31,19.20
2009,07,25,02,32,19.20
2009,07,25,02,33,19.20
2009,07,25,02,34,19.20
2009,07,25,02,35,19.20
2009,07,25,02,36,19.10
2009,07,25,02,37,19.10
2009,07,25,02,38,19.10
2009,07,25,02,39,19.10
2009,07,25,02,40,19.10
2009,07,25,02,41,19.10
2009,07,25,02,42,19.10
2009,07,25,02,43,19.10
2009,07,25,02,44,19.10
2009,07,25,02,45,19.10
2009,07,25,02,46,19.10
2009,07,25,02,47,19.10
2009,07,25,02,48,19.10
2009,07,25,02,49,19.10
2009,07,25,02,50,19.10
2009,07,25,02,51,19.10
2009,07,25,02,52,19.00
2009,07,25,02,53,19.00
2009,07,25,02,54,19.00
2009,07,25,02,55,19.00
2009,07,25,02,56,18.90
2009,07,25,02,57,18.90
2009,07,25,02,58,18.90
2009,07,25,02,59,18.90
2009,07,25,03,00,18.90
2009,07,25,03,01,18.90
2009,07,25,03,02,18.90
2009,07,25,03,03,18.90
2009,07,25,03,04,18.90
2009,07,25,03,05,18.90
2009,07,25,03,06,18.90
2009,07,25,03,07,18.90
2009,07,25,03,08,18.80
2009,07,25,03,09,18.80
2009,07,25,03,10,18.80
2009,07,25,03,11,18.80
2009,07,25,03,12,18.80
2009,07,25,03,13,18.80
2009,07,25,03,14,18.80
2009,07,25,03,15,18.80
2009,07,25,03,16,18.80
2009,07,25,03,17,18.80
2009,07,25,03,18,18.80
2009,07,25,03,19,18.70
2009,07,25,03,20,18.70
2009,07,25,03,21,18.70
2009,07,25,03,22,18.70
2009,07,25,03,23,18.70
2009,07,25,03,24,18.70
2009,07,25,03,25,18.70
2009,07,25,03,26,18.70
2009,07,25,03,27,18.70
2009,07,25,03,28,18.70
2009,07,25,03,29,18.70
2009,07,25,03,30,18.70
2009,07,25,03,31,18.60
2009,07,25,03,32,18.60
2009,07,25,03,33,18.60
2009,07,25,03,34,18.60
2009,07,25,03,35,18.60
2009,07,25,03,36,18.60
2009,07,25,03,37,18.60
2009,07,25,03,38,18.50
2009,07,25,03,39,18.50
2009,07,25,03,40,18.50
2009,07,25,03,41,18.40
2009,07,25,03,42,18.40
2009,07,25,03,43,18.40
2009,07,25,03,44,18.40
2009,07,25,03,45,18.40
2009,07,25,03,46,18.40
2009,07,25,03,47,18.40
2009,07,25,03,48,18.40
2009,07,25,03,49,18.40
2009,07,25,03,50,18.30
2009,07,25,03,51,18.30
2009,07,25,03,52,18.30
2009,07,25,03,53,18.30
2009,07,25,03,54,18.30
2009,07,25,03,55,18.30
2009,07,25,03,56,18.30
2009,07,25,03,57,18.30
2009,07,25,03,58,18.20
2009,07,25,03,59,18.20
2009,07,25,04,00,18.20
2009,07,25,04,01,18.20
2009,07,25,04,02,18.20
2009,07,25,04,03,18.20
2009,07,25,04,04,18.20
2009,07,25,04,05,18.20
2009,07,25,04,06,18.20
2009,07,25,04,07,18.10
2009,07,25,04,08,18.10
2009,07,25,04,09,18.10
2009,07,25,04,10,18.10
2009,07,25,04,11,18.10
2009,07,25,04,12,18.10
2009,07,25,04,13,18.10
2009,07,25,04,14,18.10
2009,07,25,04,15,18.10
2009,07,25,04,16,18.10
2009,07,25,04,17,18.10
2009,07,25,04,18,18.10
2009,07,25,04,19,18.10
2009,07,25,04,20,18.10
2009,07,25,04,21,18.10
2009,07,25,04,22,18.00
2009,07,25,04,23,18.00
2009,07,25,04,24,18.00
2009,07,25,04,25,18.00
2009,07,25,04,26,18.00
2009,07,25,04,27,18.00
2009,07,25,04,28,18.00
2009,07,25,04,29,18.00
2009,07,25,04,30,18.00
2009,07,25,04,31,18.00
2009,07,25,04,32,18.00
2009,07,25,04,33,17.90
2009,07,25,04,34,17.90
2009,07,25,04,35,17.90
2009,07,25,04,36,17.90
2009,07,25,04,37,17.90
2009,07,25,04,38,17.90
2009,07,25,04,39,17.90
2009,07,25,04,40,17.90
2009,07,25,04,41,17.80
2009,07,25,04,42,17.80
2009,07,25,04,43,17.80
2009,07,25,04,44,17.80
2009,07,25,04,45,17.80
2009,07,25,04,46,17.80
2009,07,25,04,47,17.80
2009,07,25,04,48,17.80
2009,07,25,04,49,17.80
2009,07,25,04,50,17.70
2009,07,25,04,51,17.70
2009,07,25,04,52,17.80
2009,07,25,04,53,17.70
2009,07,25,04,54,17.70
2009,07,25,04,55,17.70
2009,07,25,04,56,17.70
2009,07,25,04,57,17.70
2009,07,25,04,58,17.70
2009,07,25,04,59,17.70
2009,07,25,05,00,17.80
2009,07,25,05,01,17.80
2009,07,25,05,02,17.80
2009,07,25,05,03,17.80
2009,07,25,05,04,17.80
2009,07,25,05,05,17.80
2009,07,25,05,06,17.80
2009,07,25,05,07,17.80
2009,07,25,05,08,17.80
2009,07,25,05,09,17.80
2009,07,25,05,10,17.80
2009,07,25,05,11,17.70
2009,07,25,05,12,17.70
2009,07,25,05,13,17.80
2009,07,25,05,14,17.80
2009,07,25,05,15,17.80
2009,07,25,05,16,17.80
2009,07,25,05,17,17.80
2009,07,25,05,18,17.80
2009,07,25,05,19,17.80
2009,07,25,05,20,17.80
2009,07,25,05,21,17.80
2009,07,25,05,22,17.80
2009,07,25,05,23,17.80
2009,07,25,05,24,17.90
2009,07,25,05,25,17.90
2009,07,25,05,26,17.90
2009,07,25,05,27,17.90
2009,07,25,05,28,17.90
2009,07,25,05,29,17.90
2009,07,25,05,30,17.90
2009,07,25,05,31,17.90
2009,07,25,05,32,17.90
2009,07,25,05,33,17.90
2009,07,25,05,34,17.80
2009,07,25,05,35,17.80
2009,07,25,05,36,17.80
2009,07,25,05,37,17.80
2009,07,25,05,38,17.80
2009,07,25,05,39,17.80
2009,07,25,05,40,17.80
2009,07,25,05,41,17.80
2009,07,25,05,42,17.80
2009,07,25,05,43,17.80
2009,07,25,05,44,17.80
2009,07,25,05,45,17.80
2009,07,25,05,46,17.80
2009,07,25,05,47,17.70
2009,07,25,05,48,17.70
2009,07,25,05,49,17.70
2009,07,25,05,50,17.70
2009,07,25,05,51,17.70
2009,07,25,05,52,17.60
2009,07,25,05,53,17.60
2009,07,25,05,54,17.60
2009,07,25,05,55,17.60
2009,07,25,05,56,17.60
2009,07,25,05,57,17.50
2009,07,25,05,58,17.50
2009,07,25,05,59,17.40
2009,07,25,06,00,17.40
2009,07,25,06,01,17.40
2009,07,25,06,02,17.40
2009,07,25,06,03,17.30
2009,07,25,06,04,17.30
2009,07,25,06,05,17.30
2009,07,25,06,06,17.30
2009,07,25,06,07,17.30
2009,07,25,06,08,17.30
2009,07,25,06,09,17.30
2009,07,25,06,10,17.30
2009,07,25,06,11,17.40
2009,07,25,06,12,17.40
2009,07,25,06,13,17.40
2009,07,25,06,14,17.40
2009,07,25,06,15,17.40
2009,07,25,06,16,17.40
2009,07,25,06,17,17.50
2009,07,25,06,18,17.50
2009,07,25,06,19,17.50
2009,07,25,06,20,17.60
2009,07,25,06,21,17.60
2009,07,25,06,22,17.60
2009,07,25,06,23,17.60
2009,07,25,06,24,17.60
2009,07,25,06,25,17.70
2009,07,25,06,26,17.70
2009,07,25,06,27,17.70
2009,07,25,06,28,17.70
2009,07,25,06,29,17.70
2009,07,25,06,30,17.80
2009,07,25,06,31,17.80
2009,07,25,06,32,17.80
2009,07,25,06,33,17.80
2009,07,25,06,34,17.70
2009,07,25,06,35,17.70
2009,07,25,06,36,17.70
2009,07,25,06,37,17.70
2009,07,25,06,38,17.70
2009,07,25,06,39,17.70
2009,07,25,06,40,17.70
2009,07,25,06,41,17.70
2009,07,25,06,42,17.70
2009,07,25,06,43,17.70
2009,07,25,06,44,17.70
2009,07,25,06,45,17.70
2009,07,25,06,46,17.70
2009,07,25,06,47,17.70
2009,07,25,06,48,17.70
2009,07,25,06,49,17.70
2009,07,25,06,50,17.70
2009,07,25,06,51,17.70
2009,07,25,06,52,17.80
2009,07,25,06,53,17.80
2009,07,25,06,54,17.80
2009,07,25,06,55,17.80
2009,07,25,06,56,17.80
2009,07,25,06,57,17.80
2009,07,25,06,58,17.80
2009,07,25,06,59,17.80
2009,07,25,07,00,17.80
2009,07,25,07,01,17.80
2009,07,25,07,02,17.80
2009,07,25,07,03,17.80
2009,07,25,07,04,17.90
2009,07,25,07,05,17.90
2009,07,25,07,06,17.90
2009,07,25,07,07,17.90
2009,07,25,07,08,17.90
2009,07,25,07,09,17.90
2009,07,25,07,10,17.90
2009,07,25,07,11,17.90
2009,07,25,07,12,17.90
2009,07,25,07,13,17.90
2009,07,25,07,14,17.80
2009,07,25,07,15,17.90
2009,07,25,07,16,17.80
2009,07,25,07,17,17.90
2009,07,25,07,18,17.90
2009,07,25,07,19,17.90
2009,07,25,07,20,17.90
2009,07,25,07,21,17.90
2009,07,25,07,22,17.90
2009,07,25,07,23,18.00
2009,07,25,07,24,18.00
2009,07,25,07,25,18.10
2009,07,25,07,26,18.10
2009,07,25,07,27,18.10
2009,07,25,07,28,18.10
2009,07,25,07,29,18.10
2009,07,25,07,30,18.10
2009,07,25,07,31,18.20
2009,07,25,07,32,18.20
2009,07,25,07,33,18.20
2009,07,25,07,34,18.20
2009,07,25,07,35,18.20
2009,07,25,07,36,18.20
2009,07,25,07,37,18.20
2009,07,25,07,38,18.20
2009,07,25,07,39,18.20
2009,07,25,07,40,18.20
2009,07,25,07,41,18.30
2009,07,25,07,42,18.30
2009,07,25,07,43,18.30
2009,07,25,07,44,18.30
2009,07,25,07,45,18.40
2009,07,25,07,46,18.40
2009,07,25,07,47,18.40
2009,07,25,07,48,18.40
2009,07,25,07,49,18.50
2009,07,25,07,50,18.50
2009,07,25,07,51,18.50
2009,07,25,07,52,18.50
2009,07,25,07,53,18.50
2009,07,25,07,54,18.50
2009,07,25,07,55,18.50
2009,07,25,07,56,18.50
2009,07,25,07,57,18.50
2009,07,25,07,58,18.50
2009,07,25,07,59,18.50
2009,07,25,08,00,18.40
2009,07,25,08,01,18.40
2009,07,25,08,02,18.50
2009,07,25,08,03,18.50
2009,07,25,08,04,18.50
2009,07,25,08,05,18.50
2009,07,25,08,06,18.50
2009,07,25,08,07,18.50
2009,07,25,08,08,18.60
2009,07,25,08,09,18.60
2009,07,25,08,10,18.70
2009,07,25,08,11,18.70
2009,07,25,08,12,18.80
2009,07,25,08,13,18.80
2009,07,25,08,14,18.90
2009,07,25,08,15,18.90
2009,07,25,08,16,18.90
2009,07,25,08,17,19.00
2009,07,25,08,18,19.00
2009,07,25,08,19,19.00
2009,07,25,08,20,19.10
2009,07,25,08,21,19.10
2009,07,25,08,22,19.10
2009,07,25,08,23,19.10
2009,07,25,08,24,19.20
2009,07,25,08,25,19.20
2009,07,25,08,26,19.10
2009,07,25,08,27,19.10
2009,07,25,08,28,19.10
2009,07,25,08,29,19.10
2009,07,25,08,30,19.10
2009,07,25,08,31,19.10
2009,07,25,08,32,19.10
2009,07,25,08,33,19.10
2009,07,25,08,34,19.10
2009,07,25,08,35,19.10
2009,07,25,08,36,19.20
2009,07,25,08,37,19.20
2009,07,25,08,38,19.20
2009,07,25,08,39,19.20
2009,07,25,08,40,19.30
2009,07,25,08,41,19.30
2009,07,25,08,42,19.40
2009,07,25,08,43,19.50
2009,07,25,08,44,19.50
2009,07,25,08,45,19.60
2009,07,25,08,46,19.60
2009,07,25,08,47,19.60
2009,07,25,08,48,19.60
2009,07,25,08,49,19.60
2009,07,25,08,50,19.70
2009,07,25,08,51,19.70
2009,07,25,08,52,19.80
2009,07,25,08,53,19.80
2009,07,25,08,54,19.80
2009,07,25,08,55,19.90
2009,07,25,08,56,19.90
2009,07,25,08,57,19.90
2009,07,25,08,58,20.00
2009,07,25,08,59,20.00
2009,07,25,09,00,19.90
2009,07,25,09,01,20.00
2009,07,25,09,02,20.00
2009,07,25,09,03,20.00
2009,07,25,09,04,20.00
2009,07,25,09,05,20.10
2009,07,25,09,06,20.10
2009,07,25,09,07,20.10
2009,07,25,09,08,20.10
2009,07,25,09,09,20.10
2009,07,25,09,10,20.10
2009,07,25,09,11,20.10
2009,07,25,09,12,20.00
2009,07,25,09,13,20.00
2009,07,25,09,14,20.00
2009,07,25,09,15,20.00
2009,07,25,09,16,20.00
2009,07,25,09,17,20.10
2009,07,25,09,18,20.10
2009,07,25,09,19,20.10
2009,07,25,09,20,20.20
2009,07,25,09,21,20.20
2009,07,25,09,22,20.20
2009,07,25,09,23,20.30
2009,07,25,09,24,20.30
2009,07,25,09,25,20.30
2009,07,25,09,26,20.40
2009,07,25,09,27,20.40
2009,07,25,09,28,20.40
2009,07,25,09,29,20.40
2009,07,25,09,30,20.50
2009,07,25,09,31,20.50
2009,07,25,09,32,20.60
2009,07,25,09,33,20.70
2009,07,25,09,34,20.70
2009,07,25,09,35,20.70
2009,07,25,09,36,20.70
2009,07,25,09,37,20.70
2009,07,25,09,38,20.70
2009,07,25,09,39,20.70
2009,07,25,09,40,20.70
2009,07,25,09,41,20.70
2009,07,25,09,42,20.70
2009,07,25,09,43,20.60
2009,07,25,09,44,20.60
2009,07,25,09,45,20.60
2009,07,25,09,46,20.60
2009,07,25,09,47,20.50
2009,07,25,09,48,20.50
2009,07,25,09,49,20.40
2009,07,25,09,50,20.40
2009,07,25,09,51,20.40
2009,07,25,09,52,20.30
2009,07,25,09,53,20.30
2009,07,25,09,54,20.30
2009,07,25,09,55,20.30
2009,07,25,09,56,20.30
2009,07,25,09,57,20.30
2009,07,25,09,58,20.30
2009,07,25,09,59,20.30
2009,07,25,10,00,20.30
2009,07,25,10,01,20.40
2009,07,25,10,02,20.50
2009,07,25,10,03,20.60
2009,07,25,10,04,20.60
2009,07,25,10,05,20.60
2009,07,25,10,06,20.60
2009,07,25,10,07,20.70
2009,07,25,10,08,20.70
2009,07,25,10,09,20.80
2009,07,25,10,10,20.80
2009,07,25,10,11,20.80
2009,07,25,10,12,20.90
2009,07,25,10,13,20.90
2009,07,25,10,14,20.90
2009,07,25,10,15,20.90
2009,07,25,10,16,20.90
2009,07,25,10,17,20.90
2009,07,25,10,18,20.90
2009,07,25,10,19,20.90
2009,07,25,10,20,20.90
2009,07,25,10,21,20.90
2009,07,25,10,22,20.80
2009,07,25,10,23,20.70
2009,07,25,10,24,20.60
2009,07,25,10,25,20.50
2009,07,25,10,26,20.50
2009,07,25,10,27,20.40
2009,07,25,10,28,20.40
2009,07,25,10,29,20.40
2009,07,25,10,30,20.40
2009,07,25,10,31,20.40
2009,07,25,10,32,20.40
2009,07,25,10,33,20.50
2009,07,25,10,34,20.50
2009,07,25,10,35,20.60
2009,07,25,10,36,20.60
2009,07,25,10,37,20.70
2009,07,25,10,38,20.70
2009,07,25,10,39,20.70
2009,07,25,10,40,20.80
2009,07,25,10,41,20.80
2009,07,25,10,42,20.80
2009,07,25,10,43,20.80
2009,07,25,10,44,20.60
2009,07,25,10,45,20.50
2009,07,25,10,46,20.50
2009,07,25,10,47,20.50
2009,07,25,10,48,20.50
2009,07,25,10,49,20.50
2009,07,25,10,50,20.40
2009,07,25,10,51,20.40
2009,07,25,10,52,20.40
2009,07,25,10,53,20.40
2009,07,25,10,54,20.40
2009,07,25,10,55,20.40
2009,07,25,10,56,20.50
2009,07,25,10,57,20.60
2009,07,25,10,58,20.70
2009,07,25,10,59,20.70
2009,07,25,11,00,20.80
2009,07,25,11,01,20.80
2009,07,25,11,02,20.80
2009,07,25,11,03,20.80
2009,07,25,11,04,20.80
2009,07,25,11,05,20.70
2009,07,25,11,06,20.70
2009,07,25,11,07,20.70
2009,07,25,11,08,20.80
2009,07,25,11,09,20.80
2009,07,25,11,10,20.90
2009,07,25,11,11,20.90
2009,07,25,11,12,20.90
2009,07,25,11,13,21.00
2009,07,25,11,14,21.00
2009,07,25,11,15,21.00
2009,07,25,11,16,21.10
2009,07,25,11,17,21.10
2009,07,25,11,18,21.20
2009,07,25,11,19,21.20
2009,07,25,11,20,21.20
2009,07,25,11,21,21.20
2009,07,25,11,22,21.20
2009,07,25,11,23,21.20
2009,07,25,11,24,21.20
2009,07,25,11,25,21.10
2009,07,25,11,26,21.20
2009,07,25,11,27,21.20
2009,07,25,11,28,21.10
2009,07,25,11,29,21.20
2009,07,25,11,30,21.20
2009,07,25,11,31,21.20
2009,07,25,11,32,21.30
2009,07,25,11,33,21.30
2009,07,25,11,34,21.30
2009,07,25,11,35,21.30
2009,07,25,11,36,21.30
2009,07,25,11,37,21.30
2009,07,25,11,38,21.40
2009,07,25,11,39,21.40
2009,07,25,11,40,21.30
2009,07,25,11,41,21.20
2009,07,25,11,42,21.20
2009,07,25,11,43,21.20
2009,07,25,11,44,21.20
2009,07,25,11,45,21.20
2009,07,25,11,46,21.10
2009,07,25,11,47,21.10
2009,07,25,11,48,21.10
2009,07,25,11,49,21.10
2009,07,25,11,50,21.20
2009,07,25,11,51,21.20
2009,07,25,11,52,21.30
2009,07,25,11,53,21.40
2009,07,25,11,54,21.50
2009,07,25,11,55,21.70
2009,07,25,11,56,21.80
2009,07,25,11,57,21.80
2009,07,25,11,58,21.90
2009,07,25,11,59,22.00
2009,07,25,12,00,22.00
2009,07,25,12,01,22.00
2009,07,25,12,02,22.00
2009,07,25,12,03,22.00
2009,07,25,12,04,22.00
2009,07,25,12,05,22.00
2009,07,25,12,06,22.10
2009,07,25,12,07,22.10
2009,07,25,12,08,22.00
2009,07,25,12,09,22.00
2009,07,25,12,10,22.00
2009,07,25,12,11,21.90
2009,07,25,12,12,21.90
2009,07,25,12,13,21.90
2009,07,25,12,14,22.00
2009,07,25,12,15,22.10
2009,07,25,12,16,22.10
2009,07,25,12,17,22.20
2009,07,25,12,18,22.30
2009,07,25,12,19,22.30
2009,07,25,12,20,22.30
2009,07,25,12,21,22.30
2009,07,25,12,22,22.30
2009,07,25,12,23,22.30
2009,07,25,12,24,22.30
2009,07,25,12,25,22.20
2009,07,25,12,26,22.10
2009,07,25,12,27,22.00
2009,07,25,12,28,21.90
2009,07,25,12,29,21.80
2009,07,25,12,30,21.80
2009,07,25,12,31,21.80
2009,07,25,12,32,21.90
2009,07,25,12,33,22.00
2009,07,25,12,34,21.90
2009,07,25,12,35,22.00
2009,07,25,12,36,22.00
2009,07,25,12,37,22.10
2009,07,25,12,38,22.10
2009,07,25,12,39,22.20
2009,07,25,12,40,22.30
2009,07,25,12,41,22.20
2009,07,25,12,42,22.10
2009,07,25,12,43,22.00
2009,07,25,12,44,22.00
2009,07,25,12,45,22.00
2009,07,25,12,46,22.00
2009,07,25,12,47,21.90
2009,07,25,12,48,21.80
2009,07,25,12,49,21.80
2009,07,25,12,50,21.80
2009,07,25,12,51,21.80
2009,07,25,12,52,21.80
2009,07,25,12,53,21.80
2009,07,25,12,54,21.80
2009,07,25,12,55,21.70
2009,07,25,12,56,21.60
2009,07,25,12,57,21.60
2009,07,25,12,58,21.70
2009,07,25,12,59,21.80
2009,07,25,13,00,21.80
2009,07,25,13,01,21.90
2009,07,25,13,02,22.00
2009,07,25,13,03,22.10
2009,07,25,13,04,22.20
2009,07,25,13,05,22.40
2009,07,25,13,06,22.50
2009,07,25,13,07,22.50
2009,07,25,13,08,22.50
2009,07,25,13,09,22.60
2009,07,25,13,10,22.60
2009,07,25,13,11,22.70
2009,07,25,13,12,22.80
2009,07,25,13,13,22.70
2009,07,25,13,14,22.70
2009,07,25,13,15,22.70
2009,07,25,13,16,22.70
2009,07,25,13,17,22.80
2009,07,25,13,18,22.80
2009,07,25,13,19,22.90
2009,07,25,13,20,23.00
2009,07,25,13,21,22.90
2009,07,25,13,22,22.90
2009,07,25,13,23,23.00
2009,07,25,13,24,23.10
2009,07,25,13,25,23.10
2009,07,25,13,26,23.00
2009,07,25,13,27,22.90
2009,07,25,13,28,22.80
2009,07,25,13,29,22.90
2009,07,25,13,30,22.90
2009,07,25,13,31,22.90
2009,07,25,13,32,22.80
2009,07,25,13,33,22.70
2009,07,25,13,34,22.60
2009,07,25,13,35,22.50
2009,07,25,13,36,22.50
2009,07,25,13,37,22.50
2009,07,25,13,38,22.60
2009,07,25,13,39,22.80
2009,07,25,13,40,22.80
2009,07,25,13,41,22.90
2009,07,25,13,42,22.90
2009,07,25,13,43,22.90
2009,07,25,13,44,22.90
2009,07,25,13,45,23.00
2009,07,25,13,46,23.00
2009,07,25,13,47,23.10
2009,07,25,13,48,23.20
2009,07,25,13,49,23.30
2009,07,25,13,50,23.40
2009,07,25,13,51,23.60
2009,07,25,13,52,23.70
2009,07,25,13,53,23.80
2009,07,25,13,54,23.90
2009,07,25,13,55,23.90
2009,07,25,13,56,24.00
2009,07,25,13,57,24.10
2009,07,25,13,58,24.10
2009,07,25,13,59,24.10
2009,07,25,14,00,24.20
2009,07,25,14,01,24.30
2009,07,25,14,02,24.30
2009,07,25,14,03,24.40
2009,07,25,14,04,24.40
2009,07,25,14,05,24.40
2009,07,25,14,06,24.30
2009,07,25,14,07,24.30
2009,07,25,14,08,24.30
2009,07,25,14,09,24.30
2009,07,25,14,10,24.40
2009,07,25,14,11,24.40
2009,07,25,14,12,24.30
2009,07,25,14,13,24.30
2009,07,25,14,14,24.20
2009,07,25,14,15,24.10
2009,07,25,14,16,24.10
2009,07,25,14,17,24.10
2009,07,25,14,18,24.10
2009,07,25,14,19,24.10
2009,07,25,14,20,24.10
2009,07,25,14,21,24.10
2009,07,25,14,22,24.20
2009,07,25,14,23,24.40
2009,07,25,14,24,24.40
2009,07,25,14,25,24.40
2009,07,25,14,26,24.30
2009,07,25,14,27,24.20
2009,07,25,14,28,24.20
2009,07,25,14,29,24.20
2009,07,25,14,30,24.20
2009,07,25,14,31,24.20
2009,07,25,14,32,24.30
2009,07,25,14,33,24.30
2009,07,25,14,34,24.40
2009,07,25,14,35,24.50
2009,07,25,14,36,24.60
2009,07,25,14,37,24.70
2009,07,25,14,38,24.80
2009,07,25,14,39,24.80
2009,07,25,14,40,24.80
2009,07,25,14,41,24.80
2009,07,25,14,42,24.80
2009,07,25,14,43,24.70
2009,07,25,14,44,24.60
2009,07,25,14,45,24.60
2009,07,25,14,46,24.60
2009,07,25,14,47,24.50
2009,07,25,14,48,24.50
2009,07,25,14,49,24.50
2009,07,25,14,50,24.60
2009,07,25,14,51,24.70
2009,07,25,14,52,24.70
2009,07,25,14,53,24.80
2009,07,25,14,54,24.70
2009,07,25,14,55,24.70
2009,07,25,14,56,24.70
2009,07,25,14,57,24.80
2009,07,25,14,58,24.80
2009,07,25,14,59,24.90
2009,07,25,15,00,24.90
2009,07,25,15,01,24.90
2009,07,25,15,02,24.90
2009,07,25,15,03,25.00
2009,07,25,15,04,25.00
2009,07,25,15,05,25.10
2009,07,25,15,06,25.20
2009,07,25,15,07,25.30
2009,07,25,15,08,25.30
2009,07,25,15,09,25.30
2009,07,25,15,10,25.40
2009,07,25,15,11,25.30
2009,07,25,15,12,25.30
2009,07,25,15,13,25.20
2009,07,25,15,14,25.20
2009,07,25,15,15,25.10
2009,07,25,15,16,25.20
2009,07,25,15,17,25.30
2009,07,25,15,18,25.40
2009,07,25,15,19,25.50
2009,07,25,15,20,25.70
2009,07,25,15,21,25.80
2009,07,25,15,22,25.90
2009,07,25,15,23,25.90
2009,07,25,15,24,25.80
2009,07,25,15,25,25.80
2009,07,25,15,26,25.80
2009,07,25,15,27,25.70
2009,07,25,15,28,25.60
2009,07,25,15,29,25.60
2009,07,25,15,30,25.70
2009,07,25,15,31,25.70
2009,07,25,15,32,25.70
2009,07,25,15,33,25.60
2009,07,25,15,34,25.60
2009,07,25,15,35,25.60
2009,07,25,15,36,25.60
2009,07,25,15,37,25.60
2009,07,25,15,38,25.60
2009,07,25,15,39,25.60
2009,07,25,15,40,25.60
2009,07,25,15,41,25.60
2009,07,25,15,42,25.60
2009,07,25,15,43,25.60
2009,07,25,15,44,25.60
2009,07,25,15,45,25.60
2009,07,25,15,46,25.70
2009,07,25,15,47,25.70
2009,07,25,15,48,25.70
2009,07,25,15,49,25.70
2009,07,25,15,50,25.80
2009,07,25,15,51,25.70
2009,07,25,15,52,25.60
2009,07,25,15,53,25.60
2009,07,25,15,54,25.70
2009,07,25,15,55,25.90
2009,07,25,15,56,25.90
2009,07,25,15,57,25.90
2009,07,25,15,58,25.90
2009,07,25,15,59,25.90
2009,07,25,16,00,25.80
2009,07,25,16,01,25.60
2009,07,25,16,02,25.60
2009,07,25,16,03,25.50
2009,07,25,16,04,25.50
2009,07,25,16,05,25.50
2009,07,25,16,06,25.60
2009,07,25,16,07,25.80
2009,07,25,16,08,25.80
2009,07,25,16,09,25.80
2009,07,25,16,10,25.80
2009,07,25,16,11,25.80
2009,07,25,16,12,25.70
2009,07,25,16,13,25.60
2009,07,25,16,14,25.60
2009,07,25,16,15,25.60
2009,07,25,16,16,25.60
2009,07,25,16,17,25.60
2009,07,25,16,18,25.70
2009,07,25,16,19,25.70
2009,07,25,16,20,25.70
2009,07,25,16,21,25.70
2009,07,25,16,22,25.80
2009,07,25,16,23,25.90
2009,07,25,16,24,25.90
2009,07,25,16,25,25.90
2009,07,25,16,26,25.80
2009,07,25,16,27,25.80
2009,07,25,16,28,25.70
2009,07,25,16,29,25.60
2009,07,25,16,30,25.60
2009,07,25,16,31,25.60
2009,07,25,16,32,25.60
2009,07,25,16,33,25.70
2009,07,25,16,34,25.80
2009,07,25,16,35,25.90
2009,07,25,16,36,25.90
2009,07,25,16,37,26.00
2009,07,25,16,38,26.10
2009,07,25,16,39,26.20
2009,07,25,16,40,26.30
2009,07,25,16,41,26.40
2009,07,25,16,42,26.50
2009,07,25,16,43,26.50
2009,07,25,16,44,26.50
2009,07,25,16,45,26.40
2009,07,25,16,46,26.50
2009,07,25,16,47,26.50
2009,07,25,16,48,26.60
2009,07,25,16,49,26.60
2009,07,25,16,50,26.60
2009,07,25,16,51,26.70
2009,07,25,16,52,26.80
2009,07,25,16,53,26.80
2009,07,25,16,54,26.80
2009,07,25,16,55,26.80
2009,07,25,16,56,26.80
2009,07,25,16,57,26.80
2009,07,25,16,58,26.80
2009,07,25,16,59,26.80
2009,07,25,17,00,26.80
2009,07,25,17,01,26.90
2009,07,25,17,02,27.00
2009,07,25,17,03,27.10
2009,07,25,17,04,27.00
2009,07,25,17,05,27.00
2009,07,25,17,06,27.00
2009,07,25,17,07,27.10
2009,07,25,17,08,27.10
2009,07,25,17,09,27.10
2009,07,25,17,10,27.20
2009,07,25,17,11,27.20
2009,07,25,17,12,27.20
2009,07,25,17,13,27.30
2009,07,25,17,14,27.30
2009,07,25,17,15,27.40
2009,07,25,17,16,27.40
2009,07,25,17,17,27.50
2009,07,25,17,18,27.60
2009,07,25,17,19,27.60